Location: Newark
(49.8969°N, 3.3422°E)
Time: 14:57:18
(UTC+00:00)

Vanguard 1 Rocket - Pass Details

Date: 23 January 2020
Orbit: 650 x 4226 km, 34.3° (Epoch: 17 February)

Event Time Altitude Azimuth Distance (km) Brightness Sun altitude
Rises 14:35:47 0° 268° (W) 5,783 12.1 12.4°
Reaches altitude 10° 14:39:21 10° 260° (W) 5,197 12.1 12.0°
Maximum altitude 14:54:00 38° 201° (SSW) 4,641 12.1 10.5°
Drops below altitude 10° 15:15:27 10° 144° (SE) 7,421 12.2 8.1°
Sets 15:22:03 0° 138° (SE) 8,424 12.3 7.4°
